DW1289 Weather Reports


time (UTC)temp
C
wind
direction
speed
KPH
gust
KPH
rain 1hr
cm
rain 24hr
cm
rain mn
cm
humidity
%
barometer
mb
20260505033016 19 225 3.2 8.0 0.00 0.18 0.18 57 1008.3
20260505032016 20 225 1.6 4.8 0.00 0.18 0.18 57 1008.1
20260505031036 20 225 3.2 6.4 0.00 0.18 0.18 56 1008.0
20260505030016 20 225 1.6 8.0 0.00 0.18 0.18 55 1007.9
20260505025036 20 225 3.2 9.7 0.00 0.18 0.18 54 1007.7
20260505024016 20 248 4.8 8.0 0.00 0.18 0.18 53 1007.6
20260505023037 21 225 3.2 14.5 0.00 0.18 0.18 53 1007.2
20260505022016 21 225 3.2 8.0 0.00 0.18 0.18 52 1007.1
20260505021016 21 203 3.2 8.0 0.00 0.18 0.18 52 1006.9
20260505020016 21 225 3.2 8.0 0.00 0.18 0.18 51 1006.8
20260505015016 21 225 3.2 11.3 0.00 0.18 0.18 50 1006.7
20260505014016 22 225 4.8 12.9 0.00 0.18 0.18 49 1006.4
20260505013016 22 248 4.8 14.5 0.00 0.18 0.18 49 1006.3
20260505012016 22 248 6.4 14.5 0.00 0.18 0.18 48 1006.0
20260505011016 22 248 6.4 16.1 0.00 0.18 0.18 49 1005.9
20260505010016 22 248 8.0 24.1 0.00 0.18 0.18 48 1006.2
20260505005016 22 248 6.4 16.1 0.00 0.18 0.18 50 1006.0
20260505004016 22 248 6.4 17.7 0.00 0.18 0.18 50 1006.1
20260505003036 23 248 6.4 16.1 0.00 0.18 0.18 50 1006.0
20260505002016 23 248 6.4 16.1 0.00 0.18 0.18 50 1005.9
20260505001016 23 248 6.4 12.9 0.00 0.18 0.18 49 1005.9
20260505000016 23 248 6.4 17.7 0.00 0.18 0.18 48 1006.2
20260504235017 23 248 8.0 19.3 0.00 0.18 0.18 47 1006.2
20260504234016 24 248 8.0 20.9 0.00 0.18 0.18 47 1006.3
20260504233016 24 248 6.4 17.7 0.00 0.18 0.18 46 1006.7
20260504232016 24 248 8.0 22.5 0.00 0.18 0.18 45 1006.9
20260504231016 25 248 6.4 19.3 0.00 0.18 0.18 46 1007.2
20260504230036 25 225 8.0 19.3 0.00 0.18 0.18 46 1007.4
20260504225016 25 225 9.7 19.3 0.00 0.18 0.18 46 1007.4
20260504224016 25 248 9.7 20.9 0.00 0.18 0.18 45 1007.6
20260504223016 25 248 9.7 20.9 0.00 0.18 0.18 45 1007.7
20260504222036 25 248 11.3 22.5 0.00 0.18 0.18 45 1007.9
20260504221036 25 248 12.9 24.1 0.00 0.18 0.18 45 1008.1
20260504220016 25 248 11.3 19.3 0.00 0.18 0.18 44 1008.0
20260504215036 25 248 12.9 24.1 0.00 0.18 0.18 44 1008.1
20260504214016 26 248 12.9 32.2 0.00 0.18 0.18 45 1008.0
20260504213036 26 225 11.3 30.6 0.00 0.18 0.18 45 1008.0
20260504212016 26 248 11.3 22.5 0.00 0.18 0.18 45 1008.2
20260504211016 27 248 11.3 20.9 0.00 0.18 0.18 45 1008.2
20260504210036 26 248 11.3 29.0 0.00 0.18 0.18 45 1008.3
20260504205016 26 248 9.7 24.1 0.00 0.18 0.18 46 1008.2
20260504204016 27 248 11.3 25.7 0.00 0.18 0.18 45 1008.3
20260504203016 27 248 11.3 24.1 0.00 0.18 0.18 47 1008.3
20260504202016 26 248 12.9 24.1 0.00 0.18 0.18 47 1008.4
20260504201016 26 248 11.3 24.1 0.00 0.18 0.18 45 1008.5
20260504200056 26 248 12.9 29.0 0.00 0.18 0.18 45 1008.6
20260504195016 26 248 11.3 27.4 0.00 0.18 0.18 44 1008.8
20260504194016 27 248 12.9 29.0 0.00 0.18 0.18 43 1009.0
20260504193016 27 248 12.9 29.0 0.00 0.18 0.18 45 1009.1
20260504192016 27 248 9.7 24.1 0.00 0.18 0.18 46 1009.2
20260504191016 26 248 11.3 25.7 0.00 0.18 0.18 46 1009.3
20260504190016 26 248 11.3 24.1 0.00 0.18 0.18 46 1009.3
20260504185016 26 248 12.9 29.0 0.00 0.18 0.18 48 1009.5
20260504184016 26 248 9.7 29.0 0.00 0.18 0.18 49 1009.6
20260504183036 26 248 11.3 19.3 0.00 0.18 0.18 48 1009.7
20260504182016 26 248 12.9 24.1 0.00 0.18 0.18 48 1009.6
20260504181036 26 248 11.3 24.1 0.00 0.18 0.18 48 1009.9
20260504180016 26 248 9.7 25.7 0.00 0.18 0.18 48 1009.8
20260504175036 26 248 9.7 19.3 0.00 0.18 0.18 52 1009.7
20260504174056 25 248 11.3 24.1 0.00 0.18 0.18 48 1009.8
20260504173016 25 248 9.7 24.1 0.00 0.18 0.18 51 1009.7
20260504172016 25 248 11.3 22.5 0.00 0.18 0.18 52 1009.9
20260504171016 25 248 9.7 24.1 0.00 0.18 0.18 53 1009.8
20260504151016 21 248 11.3 24.1 0.00 0.18 0.18 59 1010.8
20260504141036 15 248 8.0 16.1 0.00 0.18 0.18 77 1011.0
20260504081016 12 248 6.4 12.9 0.00 0.00 0.00 70 1011.5
20260504050016 12 248 3.2 11.3 0.00 0.00 0.00 67 1013.6
20260504045016 11 225 3.2 11.3 0.00 0.00 0.00 69 1013.8
20260504044016 11 248 3.2 12.9 0.00 0.00 0.00 71 1013.7
20260504043016 11 248 4.8 12.9 0.00 0.00 0.00 72 1013.9
20260504042016 11 225 3.2 8.0 0.00 0.00 0.00 70 1013.7
20260504041016 10 248 3.2 6.4 0.00 0.00 0.00 70 1013.8
20260504040016 10 0.0 4.8 0.00 0.00 0.00 69 1013.9
20260504035016 10 0.0 0.0 0.00 0.00 0.00 69 1014.0
20260504034017 10 0.0 0.0 0.00 0.00 0.00 69 1014.2